This is the latest recevied weather packets stored in our database for station/object NM5PB. If no packets are shown the sender has not sent any weather packets the latest 10 day(s).
| Time | Temp. | Humidity | Pressure | Rain* | Wind** | Luminosity | Snow |
|---|---|---|---|---|---|---|---|
| 1777695664 | 3.89° C | 78% | - | 0 mm | - | - | - |
| 1777695064 | 3.89° C | 77% | - | 0 mm | - | - | - |
| 1777694464 | 3.89° C | 76% | - | 0 mm | - | - | - |
| 1777693864 | 4.44° C | 73% | - | 0 mm | - | - | - |
| 1777693264 | 5° C | 71% | - | 0 mm | - | - | - |
| 1777692664 | 5.56° C | 69% | - | 0 mm | - | - | - |
| 1777692064 | 6.11° C | 66% | - | 0 mm | - | - | - |
| 1777691464 | 6.67° C | 65% | - | 0 mm | - | - | - |
| 1777690864 | 7.78° C | 56% | - | 0 mm | - | - | - |
| 1777690264 | 7.78° C | 57% | - | 0 mm | - | - | - |
| 1777689664 | 7.78° C | 56% | - | 0 mm | - | - | - |
| 1777689064 | 7.78° C | 55% | - | 0 mm | - | - | - |
| 1777688464 | 8.33° C | 56% | - | 0 mm | - | - | - |
| 1777687864 | 8.33° C | 56% | - | 0 mm | - | - | - |
| 1777687264 | 8.89° C | 54% | - | 0 mm | - | - | - |
| 1777686664 | 9.44° C | 54% | - | 0 mm | - | - | - |
| 1777686064 | 9.44° C | 51% | - | 0 mm | - | - | - |
| 1777685464 | 9.44° C | 52% | - | 0 mm | - | - | - |
| 1777684864 | 9.44° C | 59% | - | 0 mm | - | - | - |
| 1777684264 | 10° C | 59% | - | 0 mm | - | - | - |
| 1777683664 | 10° C | 55% | - | 0 mm | - | - | - |
| 1777683064 | 10.56° C | 56% | - | 0 mm | - | - | - |
| 1777682464 | 10.56° C | 54% | - | 0 mm | - | - | - |
| 1777681864 | 10.56° C | 56% | - | 0 mm | - | - | - |
| 1777681264 | 11.11° C | 52% | - | 0 mm | - | - | - |
* Rain latest hour (hover to see other rain measurements)
** Current wind speed in m/s (hover to see current wind gust speed)